Temp
-6 -6 -6 -7 -7 -6 -6 -5 -5 -5 -5 -5 -5 -5 -5 -5 -5 -6 -6 -6 -6 -6 -6 -6 -6 -6 -6 -6 -7 -6 -7 -7 -7 -6 -6 -6 -7 -6 -6 -7 -7 -7 -8
-6 -6 -7 -6 -6 -6 -5 -5 -5 -5 -5 -5 -5 -5 -4 -5 -5 -5 -6 -6 -7 -7 -7 -7 -7 -7 -7 -7 -7 -7 -7 -7 -7 -7 -7 -6 -6 -6 -6 -7 -8 -8 -8
-6 -6 -6 -5 -5 -5 -5 -5 -5 -5 -5 -5 -4 -4 -5 -5 -6 -6 -7 -7 -7 -7 -7 -7 -7 -7 -7 -7 -6 -6 -6 -7 -7 -7 -7 -6 -6 -6 -7 -8 -8 -9 -9
-6 -5 -5 -5 -5 -4 -4 -4 -4 -5 -4 -4 -4 -4 -4 -5 -5 -6 -6 -6 -7 -7 -7 -7 -7 -7 -7 -7 -6 -6 -6 -6 -6 -7 -7 -7 -7 -8 -8 -8 -9 -9 -9
-5 -4 -4 -4 -4 -4 -4 -4 -4 -4 -4 -4 -4 -4 -4 -4 -5 -6 -6 -6 -7 -7 -7 -7 -7 -7 -7 -6 -6 -6 -7 -6 -7 -6 -7 -8 -9 -9 -9 -9 -9 -9 -9
-4 -4 -4 -4 -4 -4 -4 -4 -4 -4 -4 -4 -4 -4 -4 -4 -5 -5 -6 -6 -6 -6 -7 -7 -7 -7 -7 -7 -7 -7 -7 -7 -7 -7 -8 -8 -9 -9 -10 -10 -10 -10 -10
-3 -4 -4 -4 -4 -4 -4 -4 -4 -4 -4 -4 -4 -4 -4 -4 -5 -5 -5 -6 -6 -6 -6 -7 -7 -7 -7 -7 -7 -7 -7 -7 -7 -8 -8 -9 -9 -10 -10 -10 -10 -10 -10
-3 -3 -3 -4 -4 -4 -4 -5 -4 -4 -4 -4 -4 -4 -4 -4 -5 -5 -6 -6 -6 -6 -6 -7 -7 -7 -7 -7 -7 -7 -7 -7 -7 -8 -9 -9 -10 -10 -10 -10 -11 -11 -11
-3 -4 -4 -4 -4 -4 -5 -5 -4 -4 -4 -4 -4 -4 -4 -4 -4 -4 -5 -6 -6 -7 -7 -7 -7 -7 -7 -7 -7 -8 -8 -7 -8 -9 -9 -9 -10 -10 -11 -11 -11 -11 -11
-3 -4 -4 -4 -4 -4 -4 -4 -4 -4 -4 -4 -4 -4 -4 -4 -5 -5 -5 -6 -6 -7 -7 -7 -7 -7 -8 -8 -8 -8 -8 -8 -8 -9 -10 -10 -10 -11 -11 -11 -11 -11 -11
-4 -4 -4 -4 -4 -4 -5 -5 -5 -4 -4 -4 -4 -4 -4 -5 -5 -5 -6 -6 -7 -7 -7 -7 -7 -7 -8 -8 -8 -7 -8 -8 -9 -10 -10 -10 -10 -11 -11 -11 -11 -12 -12
-4 -4 -5 -4 -4 -5 -5 -5 -5 -5 -5 -5 -4 -4 -4 -4 -4 -5 -5 -6 -6 -7 -7 -7 -8 -8 -8 -9 -8 -8 -9 -9 -9 -10 -10 -10 -11 -11 -11 -11 -12 -13 -14
-4 -4 -4 -4 -5 -5 -5 -5 -5 -5 -5 -5 -5 -5 -4 -4 -4 -5 -5 -5 -6 -7 -7 -7 -8 -8 -9 -9 -9 -9 -9 -9 -10 -11 -11 -11 -11 -11 -11 -12 -13 -14 -15
-4 -4 -4 -5 -5 -5 -5 -5 -5 -5 -5 -5 -5 -5 -5 -5 -5 -5 -5 -6 -6 -7 -8 -8 -8 -8 -9 -9 -9 -9 -9 -10 -11 -11 -11 -11 -11 -12 -12 -13 -14 -15 -16
-4 -4 -4 -5 -6 -5 -6 -6 -5 -5 -5 -6 -6 -6 -5 -5 -5 -5 -6 -6 -7 -7 -8 -8 -8 -8 -9 -9 -9 -9 -10 -10 -11 -12 -12 -12 -12 -12 -13 -14 -15 -16 -17
-4 -5 -5 -6 -6 -6 -6 -6 -6 -6 -6 -6 -5 -6 -6 -6 -6 -5 -6 -6 -7 -7 -8 -8 -8 -9 -9 -9 -10 -10 -10 -11 -12 -12 -12 -12 -12 -13 -14 -16 -16 -16 -18
-5 -5 -6 -6 -7 -6 -6 -7 -7 -7 -7 -6 -6 -5 -6 -6 -6 -6 -6 -7 -7 -7 -8 -8 -9 -9 -9 -10 -11 -11 -11 -11 -12 -12 -13 -13 -13 -13 -14 -16 -16 -17 -18
-6 -6 -6 -7 -7 -6 -7 -7 -7 -7 -7 -7 -7 -6 -6 -6 -7 -7 -7 -7 -7 -8 -9 -9 -9 -9 -9 -10 -11 -11 -11 -12 -13 -13 -13 -13 -13 -14 -16 -16 -17 -18 -19
-6 -6 -7 -7 -7 -7 -8 -8 -6 -7 -7 -7 -7 -7 -8 -7 -7 -7 -7 -8 -8 -8 -9 -9 -9 -9 -10 -10 -11 -12 -12 -12 -13 -13 -13 -13 -14 -14 -16 -17 -17 -18 -19
-7 -7 -8 -7 -7 -8 -8 -8 -7 -7 -7 -8 -8 -8 -8 -8 -8 -8 -8 -8 -9 -10 -10 -10 -10 -10 -10 -11 -12 -12 -12 -12 -13 -13 -13 -13 -14 -15 -17 -17 -18 -18 -19
-8 -8 -8 -8 -8 -8 -8 -7 -7 -8 -8 -9 -9 -9 -8 -8 -9 -10 -10 -9 -9 -9 -10 -10 -10 -10 -11 -11 -12 -12 -12 -13 -13 -13 -13 -14 -15 -16 -17 -18 -18 -18 -19
-8 -8 -8 -8 -8 -8 -8 -7 -7 -8 -9 -9 -9 -8 -9 -8 -8 -10 -10 -9 -10 -10 -10 -10 -10 -11 -11 -12 -12 -13 -13 -13 -13 -13 -13 -15 -15 -17 -18 -18 -19 -19 -19
-8 -8 -8 -8 -8 -8 -8 -7 -8 -8 -9 -9 -9 -9 -9 -9 -9 -9 -9 -9 -10 -10 -10 -10 -11 -11 -12 -12 -14 -14 -13 -13 -14 -14 -14 -15 -16 -17 -18 -19 -19 -19 -19
-8 -8 -8 -8 -8 -8 -7 -8 -8 -8 -8 -9 -9 -9 -8 -9 -9 -9 -9 -9 -9 -10 -11 -11 -11 -11 -11 -13 -14 -14 -14 -14 -14 -14 -15 -16 -17 -18 -18 -19 -19 -19 -19
-8 -8 -8 -8 -8 -8 -8 -8 -8 -8 -8 -9 -9 -9 -8 -8 -8 -10 -9 -9 -9 -10 -11 -11 -11 -11 -11 -12 -14 -14 -14 -14 -15 -15 -16 -17 -17 -18 -19 -19 -19 -20 -20
-8 -8 -7 -8 -8 -8 -8 -8 -8 -8 -8 -8 -10 -10 -9 -9 -8 -9 -10 -10 -10 -10 -11 -11 -11 -11 -12 -13 -14 -14 -14 -14 -15 -15 -16 -17 -18 -19 -19 -20 -20 -20 -20
Height
5934 5934 5932 5932 5931 5934 5933 5934 5932 5933 5934 5930 5927 5926 5925 5923 5921 5919 5918 5914 5913 5910 5908 5905 5904 5902 5900 5897 5894 5892 5890 5886 5881 5877 5876 5874 5872 5868 5865 5859 5856 5852 5848
5937 5936 5934 5936 5935 5936 5936 5934 5933 5933 5931 5929 5926 5924 5922 5920 5918 5915 5913 5910 5907 5905 5904 5902 5900 5899 5896 5892 5890 5888 5886 5883 5879 5874 5870 5866 5864 5860 5855 5849 5846 5842 5839
5938 5938 5937 5937 5937 5936 5935 5935 5935 5934 5933 5930 5927 5925 5922 5918 5915 5912 5908 5906 5904 5902 5901 5900 5897 5894 5892 5890 5887 5884 5881 5878 5875 5870 5864 5859 5855 5851 5846 5842 5839 5833 5830
5941 5941 5940 5939 5938 5937 5938 5938 5937 5935 5933 5928 5927 5924 5920 5917 5914 5912 5909 5906 5904 5901 5899 5896 5893 5891 5889 5887 5883 5880 5877 5873 5869 5865 5860 5854 5848 5844 5839 5835 5831 5827 5822
5941 5941 5941 5940 5939 5939 5939 5938 5937 5935 5932 5931 5928 5925 5921 5918 5914 5911 5908 5905 5903 5900 5897 5893 5891 5888 5885 5882 5879 5876 5872 5868 5864 5860 5854 5849 5843 5838 5832 5828 5823 5819 5814
5942 5941 5940 5940 5940 5940 5939 5938 5936 5934 5933 5931 5928 5925 5920 5916 5913 5911 5908 5904 5900 5898 5895 5891 5888 5885 5882 5879 5875 5871 5868 5863 5858 5852 5847 5842 5837 5831 5825 5819 5815 5812 5807
5940 5940 5940 5940 5940 5940 5939 5938 5937 5935 5933 5931 5927 5923 5919 5916 5912 5909 5905 5903 5900 5896 5893 5889 5885 5882 5879 5875 5871 5867 5862 5857 5852 5846 5840 5834 5829 5822 5817 5812 5807 5801 5796
5941 5941 5941 5941 5941 5939 5938 5937 5935 5933 5931 5930 5927 5923 5919 5914 5911 5907 5905 5901 5897 5893 5889 5885 5881 5877 5872 5869 5865 5860 5855 5850 5844 5838 5832 5826 5820 5814 5808 5801 5796 5790 5784
5942 5942 5941 5940 5939 5937 5936 5935 5933 5933 5931 5929 5926 5923 5918 5913 5908 5904 5901 5897 5893 5889 5884 5880 5877 5873 5868 5864 5859 5854 5848 5842 5836 5831 5823 5817 5810 5805 5798 5791 5784 5777 5769
5942 5941 5941 5939 5939 5937 5937 5936 5935 5934 5931 5928 5925 5921 5917 5912 5907 5903 5898 5894 5889 5885 5881 5875 5870 5866 5861 5857 5852 5847 5842 5834 5827 5821 5816 5809 5802 5796 5789 5780 5771 5762 5754
5942 5941 5941 5940 5939 5938 5937 5936 5934 5932 5930 5926 5923 5919 5915 5911 5905 5900 5895 5890 5884 5879 5874 5870 5865 5862 5857 5851 5845 5840 5834 5829 5821 5815 5808 5801 5793 5785 5777 5766 5757 5749 5740
5941 5941 5941 5941 5939 5938 5936 5934 5933 5931 5928 5924 5920 5917 5912 5907 5902 5898 5892 5887 5882 5877 5872 5867 5861 5856 5851 5846 5840 5834 5829 5822 5815 5807 5799 5792 5783 5774 5764 5755 5744 5735 5727
5939 5940 5939 5939 5937 5936 5935 5933 5931 5928 5925 5922 5918 5913 5909 5904 5899 5894 5887 5883 5878 5872 5867 5863 5857 5851 5846 5842 5837 5831 5824 5816 5808 5800 5792 5783 5773 5763 5753 5743 5733 5724 5714
5938 5938 5937 5937 5936 5935 5932 5930 5928 5925 5921 5918 5914 5910 5907 5902 5896 5890 5884 5879 5873 5867 5863 5857 5852 5848 5843 5837 5831 5825 5816 5808 5800 5792 5784 5776 5766 5754 5743 5733 5723 5713 5704
5935 5935 5934 5934 5933 5931 5929 5927 5925 5922 5920 5917 5913 5909 5903 5897 5891 5885 5880 5875 5869 5863 5858 5853 5847 5842 5836 5831 5824 5817 5809 5802 5793 5785 5776 5767 5755 5743 5732 5722 5713 5704 5695
5931 5931 5930 5929 5928 5927 5925 5924 5922 5920 5917 5914 5910 5905 5899 5893 5888 5883 5877 5871 5865 5858 5853 5848 5843 5837 5831 5824 5818 5810 5803 5796 5788 5780 5770 5759 5748 5736 5724 5714 5705 5695 5687
5926 5926 5926 5924 5924 5923 5922 5920 5917 5915 5913 5910 5906 5901 5895 5889 5883 5877 5872 5865 5859 5854 5848 5844 5837 5831 5825 5818 5812 5805 5797 5788 5780 5771 5762 5753 5741 5730 5718 5708 5698 5688 5679
5921 5921 5921 5921 5920 5920 5917 5913 5911 5910 5907 5903 5899 5895 5890 5884 5879 5874 5867 5860 5853 5848 5842 5836 5830 5824 5819 5811 5805 5797 5788 5781 5772 5764 5754 5744 5731 5721 5711 5701 5691 5682 5674
5916 5917 5916 5916 5915 5914 5912 5910 5908 5905 5902 5898 5893 5890 5885 5879 5873 5864 5860 5855 5847 5841 5836 5830 5824 5818 5812 5804 5797 5789 5781 5773 5766 5758 5748 5738 5725 5714 5705 5695 5686 5676 5668
5912 5912 5912 5911 5910 5909 5908 5906 5903 5900 5897 5893 5887 5882 5876 5873 5867 5860 5852 5847 5841 5836 5830 5823 5817 5810 5803 5796 5789 5781 5775 5767 5760 5751 5742 5730 5718 5708 5699 5690 5681 5672 5664
5909 5909 5908 5905 5905 5904 5903 5902 5899 5895 5892 5887 5881 5875 5867 5861 5856 5851 5846 5842 5834 5827 5821 5815 5810 5803 5795 5788 5782 5774 5766 5759 5752 5744 5734 5722 5712 5701 5693 5685 5676 5667 5659
5904 5904 5905 5902 5900 5898 5897 5896 5893 5890 5886 5881 5874 5866 5861 5853 5845 5844 5841 5836 5829 5821 5815 5809 5803 5795 5787 5780 5773 5766 5759 5751 5743 5736 5726 5716 5706 5696 5687 5680 5671 5662 5655
5897 5898 5899 5897 5895 5892 5890 5889 5887 5883 5879 5875 5870 5862 5854 5850 5846 5840 5836 5830 5823 5814 5806 5801 5794 5786 5780 5772 5764 5757 5751 5744 5738 5730 5720 5710 5700 5691 5682 5674 5665 5657 5650
5890 5890 5891 5890 5889 5886 5883 5882 5878 5874 5872 5868 5861 5854 5847 5843 5840 5835 5829 5821 5815 5807 5798 5792 5786 5778 5770 5763 5756 5749 5744 5738 5731 5723 5713 5704 5694 5685 5676 5668 5660 5652 5645
5881 5881 5880 5881 5880 5878 5875 5872 5868 5863 5860 5858 5854 5847 5842 5836 5830 5824 5820 5813 5806 5799 5790 5783 5777 5769 5761 5755 5748 5744 5738 5731 5724 5716 5706 5697 5689 5680 5671 5663 5655 5647 5640
5871 5871 5872 5871 5869 5867 5864 5860 5855 5850 5846 5842 5841 5838 5833 5826 5822 5815 5808 5802 5796 5788 5780 5774 5768 5761 5755 5748 5743 5738 5731 5724 5717 5709 5700 5692 5684 5675 5666 5658 5650 5642 5634
Wind_Speed
11 9 9 11 12 6 7 7 8 9 10 11 13 14 16 16 16 15 14 13 12 11 10 11 11 12 13 15 15 15 17 20 23 24 22 22 24 28 29 32 33 34 34
11 13 10 10 10 8 11 12 12 12 15 16 17 18 19 19 18 17 14 13 11 11 12 13 14 14 14 16 18 19 19 19 21 25 29 30 31 32 33 33 32 32 33
12 10 10 10 12 12 12 12 12 12 13 15 16 18 20 19 19 17 17 15 13 12 12 13 14 15 17 20 21 21 21 22 24 28 32 34 35 35 34 33 32 31 31
7 9 10 11 12 12 11 10 11 11 12 14 19 21 22 23 22 19 20 16 13 13 12 13 14 16 17 19 20 22 25 28 29 32 34 33 34 34 34 34 33 33 34
7 11 12 12 11 9 9 10 13 12 11 14 19 19 19 20 21 18 18 16 15 14 14 16 17 18 19 20 22 25 26 29 32 33 36 35 33 35 34 33 32 31 32
8 8 9 9 8 8 10 13 11 11 11 13 16 16 18 20 20 17 16 16 17 19 20 21 22 22 23 23 24 26 27 30 32 36 37 36 35 34 33 33 33 34 35
6 6 7 8 9 9 10 11 11 8 9 11 15 18 20 21 20 19 18 18 18 20 22 22 21 21 23 24 25 27 28 31 35 38 37 36 36 35 36 37 38 39 40
3 5 7 9 9 8 7 10 10 6 8 9 14 19 22 23 21 20 18 19 20 23 23 23 23 23 23 23 25 28 29 33 38 40 40 39 39 39 41 42 43 44 46
4 6 7 8 8 9 10 13 5 6 11 10 15 18 21 23 25 26 24 23 24 26 26 27 26 27 27 24 25 28 32 36 40 41 43 43 44 44 45 45 48 52 53
6 5 5 6 6 8 8 8 6 7 11 14 17 20 22 23 24 26 26 25 25 25 27 29 30 27 25 26 28 31 35 39 43 43 41 42 45 47 49 53 55 53 53
1 3 6 7 9 9 9 9 11 14 17 19 20 21 21 22 24 27 28 27 27 28 27 27 27 26 27 28 30 33 39 44 44 43 43 45 48 49 53 54 53 54 56
1 6 8 9 10 10 9 11 12 15 17 18 21 23 24 26 27 29 30 30 29 26 24 26 26 27 29 31 33 37 42 46 48 47 47 48 50 53 55 54 54 54 57
2 5 6 9 9 10 10 11 13 14 14 16 19 24 27 29 31 33 34 34 34 29 28 29 28 30 32 33 35 40 44 47 46 47 48 49 50 56 57 56 54 56 56
6 7 8 9 8 9 12 13 12 13 17 19 25 28 28 31 34 37 37 36 33 27 28 29 31 34 35 35 37 41 47 49 47 49 51 52 54 59 59 56 53 54 52
6 8 8 6 7 11 11 11 11 15 21 25 26 27 28 32 36 38 38 37 34 30 29 30 33 35 37 38 40 42 48 50 48 49 51 53 56 61 58 54 52 52 47
6 9 9 9 10 13 12 14 14 16 22 25 25 26 31 37 40 37 36 36 36 35 32 32 36 39 41 41 42 44 47 49 48 49 52 56 60 63 57 51 51 50 44
8 10 11 11 12 14 16 17 17 21 24 27 26 30 30 31 35 35 36 36 37 38 34 30 34 39 42 44 44 45 47 47 48 49 53 58 63 65 57 51 49 47 42
11 12 12 11 13 14 16 21 25 25 27 30 32 31 35 36 42 41 39 36 36 35 33 32 35 40 45 46 45 45 47 48 48 50 54 58 63 64 53 49 48 45 40
10 9 9 11 11 15 19 24 28 28 27 34 38 40 48 49 48 37 39 37 39 36 34 36 39 44 47 47 46 46 48 46 47 50 55 60 64 61 52 48 46 45 39
8 6 8 11 14 17 21 25 31 33 35 42 48 53 55 53 38 41 42 39 35 37 38 39 45 45 45 46 45 46 48 47 48 53 56 60 64 58 50 47 45 43 39
11 12 14 17 20 22 26 28 28 29 38 45 48 56 52 45 46 41 38 39 34 36 41 40 45 48 48 47 43 45 46 46 47 53 57 60 62 52 48 46 44 42 39
20 21 23 26 25 28 27 27 29 31 35 41 52 47 46 40 32 34 44 42 39 38 41 45 48 51 49 47 42 42 45 44 47 52 56 59 60 51 48 47 44 42 40
26 29 31 34 34 37 27 24 29 35 37 41 37 34 35 32 34 37 43 45 45 47 48 48 51 53 52 46 39 40 45 45 47 51 55 57 54 49 47 46 43 41 41
32 35 38 39 38 25 25 27 32 37 43 50 36 27 32 38 43 42 43 46 48 46 46 48 51 55 55 45 40 38 44 45 46 49 52 54 50 47 47 45 44 41 41
39 42 46 45 45 44 43 47 47 45 43 37 32 36 41 45 45 39 45 47 48 49 48 49 53 58 55 51 39 36 43 43 45 48 50 50 48 46 45 44 44 42 40
46 50 49 47 39 39 44 45 46 45 40 42 30 33 41 43 47 43 46 46 51 49 49 48 53 58 52 44 32 38 40 43 45 49 50 47 45 45 44 45 44 42 41
Wind_Direction
76 80 91 72 108 75 65 62 45 49 48 39 20 9 0 352 346 342 333 326 317 318 304 299 300 303 309 319 329 326 319 314 313 316 316 312 309 306 305 303 301 298 293
84 94 89 90 97 97 88 76 54 34 28 20 10 0 349 345 345 343 342 331 325 316 307 303 303 308 315 321 322 324 323 316 311 312 315 317 314 312 311 308 305 302 296
84 78 84 85 80 78 68 52 38 24 14 10 6 353 348 348 348 351 349 342 338 329 323 318 320 325 331 328 327 323 318 316 316 315 315 313 311 310 310 311 309 305 302
88 102 96 84 75 67 57 41 24 14 16 22 7 360 352 348 346 348 349 346 348 344 335 330 330 328 323 322 320 320 320 318 316 315 313 313 313 314 316 313 308 304 302
96 95 90 84 73 60 45 34 25 18 20 12 5 1 348 344 345 350 353 355 353 343 338 332 326 323 323 321 319 318 316 316 316 315 312 314 318 317 313 310 308 306 303
102 90 76 66 54 38 37 35 25 23 16 11 10 3 0 1 356 346 340 344 343 336 330 325 323 323 322 320 319 317 318 319 317 314 316 319 319 315 311 309 306 305 303
80 61 49 37 30 25 23 16 12 14 22 18 14 11 9 9 359 351 339 332 327 327 325 322 321 319 318 318 318 318 318 317 318 322 321 319 317 313 310 311 309 307 304
68 49 36 27 24 21 6 347 345 20 27 17 7 7 4 5 2 354 345 331 326 322 323 323 319 316 315 314 315 316 316 317 322 323 323 320 318 318 315 314 313 310 306
35 36 28 15 11 356 339 341 350 29 4 5 8 1 0 0 359 358 353 341 331 324 321 317 315 315 316 313 316 315 318 321 323 326 323 322 320 318 318 316 313 311 309
36 27 8 7 10 352 8 48 28 5 6 7 5 0 358 356 356 354 348 343 338 332 333 332 329 324 317 317 318 316 317 319 324 324 323 321 319 320 320 319 317 313 312
35 13 27 38 32 44 52 32 18 13 12 8 4 1 359 357 353 353 348 344 339 336 334 331 330 324 321 321 318 316 317 324 324 324 322 323 322 323 323 320 317 318 318
61 31 40 36 49 46 32 27 29 15 5 5 1 358 357 357 355 351 353 351 346 337 333 331 331 326 323 322 321 321 323 323 322 323 324 325 325 326 325 323 321 323 323
12 24 26 27 38 41 36 20 0 0 3 3 359 357 354 355 352 352 351 348 346 340 336 333 327 325 325 322 320 319 319 322 325 324 325 326 327 328 328 325 324 326 325
337 348 358 11 19 357 345 353 359 353 353 359 356 351 351 355 353 352 351 346 342 338 333 328 324 322 323 320 317 318 322 325 328 327 327 328 329 331 332 328 327 329 328
313 315 327 343 320 321 333 345 337 345 346 343 337 337 346 351 352 350 347 343 340 335 332 327 321 320 322 321 320 321 322 326 326 327 328 329 333 336 333 329 331 331 329
280 293 304 303 301 318 317 324 325 331 336 341 340 342 338 336 337 338 340 339 336 335 332 332 328 326 324 321 321 321 325 325 325 329 330 331 334 336 332 331 333 332 329
269 278 285 292 316 320 330 326 324 332 338 340 335 337 334 337 336 338 338 337 334 334 330 331 331 331 328 323 320 321 323 324 325 330 330 333 334 335 333 332 333 333 330
265 274 278 299 315 322 317 319 329 339 338 342 346 333 333 337 336 335 335 335 331 331 328 328 326 329 331 324 319 320 325 326 326 328 329 333 335 336 333 334 335 335 333
256 273 300 321 320 316 320 323 331 337 338 339 342 340 340 331 330 325 328 334 327 325 324 326 324 323 322 323 321 321 326 323 325 328 330 333 336 337 335 336 336 337 334
228 262 297 308 309 313 317 322 326 329 334 338 333 332 325 333 324 326 328 325 323 322 319 317 322 326 325 323 322 319 323 325 326 328 330 334 336 337 337 338 338 338 335
259 275 292 299 310 307 309 318 325 333 336 335 326 330 324 323 321 309 314 320 322 323 322 318 321 327 324 323 318 318 326 326 324 326 329 333 336 339 339 340 339 338 337
282 285 288 292 294 302 306 317 326 331 326 325 329 319 319 319 316 319 324 314 314 323 326 329 326 324 326 319 315 323 328 324 323 325 329 335 336 338 339 338 338 339 336
272 279 281 284 293 300 300 311 318 316 318 316 323 334 336 330 323 320 324 323 312 309 320 324 325 325 323 315 313 318 322 323 322 326 331 334 336 337 339 340 339 337 337
266 274 277 282 288 292 303 298 300 307 321 323 315 313 325 321 317 324 321 321 323 314 315 321 322 321 319 309 308 311 317 320 322 327 331 333 334 336 340 341 340 339 337
262 269 272 279 282 283 299 289 294 298 304 314 323 334 328 319 321 323 325 323 322 316 312 317 323 322 318 307 306 312 317 316 322 328 333 334 335 337 340 341 340 338 337
260 264 273 279 289 284 286 291 293 291 294 300 308 323 314 322 323 324 328 325 320 316 307 311 317 320 314 305 304 317 316 318 324 328 332 334 335 338 340 341 340 337 336